Theta_e
288 288 287 287 286 285 285 285 284 284 283 283 282 282 281 281 280 280 279 279 278 278 277 277 277 277 276 276 276 275 275 275 275 275 275 274 274 274 274 274 273 273 273 273 274 273 273 273 273 273 273 273 273 273 273 273 273 273 273 273 273 273 273 272 270 270 273 275 274 274 275 276 275 276 275 276 276 276 278 277 277 277 277 277 278
287 287 287 286 286 285 284 284 284 283 282 282 282 281 280 280 279 278 278 278 278 277 277 277 276 276 276 275 275 275 275 275 275 275 274 274 273 274 273 273 273 273 273 273 273 273 273 272 272 273 273 272 272 272 272 272 272 272 272 273 272 272 273 272 271 270 270 273 273 275 274 276 274 276 275 274 274 276 275 275 276 277 276 277 277
287 287 286 285 285 284 283 283 283 282 282 281 281 280 280 279 279 278 278 277 277 277 277 276 276 276 275 275 275 275 275 274 274 274 274 273 273 273 273 273 272 272 272 272 272 272 272 272 272 272 272 272 272 272 272 272 272 272 272 272 272 272 273 273 271 270 270 270 273 272 273 274 274 274 275 275 275 275 274 275 275 276 277 277 277
287 286 285 284 284 283 282 282 281 281 281 281 280 280 279 278 278 278 277 277 276 276 276 276 275 275 275 274 274 274 274 274 273 273 273 273 272 272 272 272 272 272 272 272 272 272 272 271 271 272 272 271 271 271 272 272 272 272 272 272 272 272 272 272 272 271 271 270 272 272 273 273 273 275 275 276 275 275 275 275 276 276 276 277 277
285 285 284 283 282 282 282 282 281 281 281 280 280 279 278 278 278 277 276 276 276 275 275 275 275 275 274 274 274 273 273 273 273 272 272 272 272 272 272 272 272 272 272 272 273 272 272 271 271 272 272 271 271 271 271 271 272 271 271 272 272 272 272 273 272 273 271 270 271 273 274 273 275 274 275 274 274 275 275 275 275 275 276 277 277
285 284 283 283 282 282 282 281 281 281 281 280 279 278 278 277 277 276 276 276 275 275 275 275 275 274 274 274 273 273 273 272 272 272 272 272 272 272 271 272 272 272 272 272 272 272 272 272 272 272 271 271 271 271 271 271 272 272 272 272 273 273 273 273 273 273 272 272 272 271 273 273 273 274 275 275 274 273 274 275 276 276 276 275 276
284 284 283 283 282 282 281 281 281 281 280 279 278 278 277 277 276 276 276 276 275 274 274 274 274 274 273 273 273 272 272 272 271 271 271 271 271 271 271 271 271 271 271 271 272 272 272 272 272 272 271 272 272 272 272 272 273 273 273 273 273 273 273 273 273 273 272 272 272 273 272 273 274 272 275 276 275 274 273 273 273 276 276 276 275
284 283 283 282 282 282 282 281 281 280 280 278 278 277 277 276 276 276 275 275 274 274 273 273 273 273 272 272 272 272 271 271 271 270 270 270 270 271 271 271 271 271 271 271 271 271 272 272 272 272 273 273 273 273 273 273 273 273 274 274 274 273 273 273 273 273 272 272 272 272 272 272 273 274 275 275 274 274 275 274 272 273 275 276 276
283 283 282 282 282 282 281 280 280 279 278 278 277 276 276 276 275 274 274 274 274 273 273 273 272 272 272 272 272 272 272 272 271 271 270 271 271 271 271 271 271 271 271 271 272 272 272 273 273 274 274 276 277 278 278 278 275 274 275 275 274 273 273 273 272 272 272 272 271 272 272 272 272 272 272 272 272 272 274 275 274 275 275 275 276
283 282 282 282 282 281 280 280 279 278 277 277 276 276 275 275 274 273 273 273 272 272 272 272 272 272 272 272 272 272 271 271 273 275 274 271 271 271 271 271 271 271 271 272 273 274 274 274 275 277 278 278 278 279 280 280 280 278 277 276 276 275 275 274 274 274 273 272 272 272 272 272 273 273 273 274 275 275 274 274 273 274 275 274 275
283 282 282 282 281 280 279 279 278 277 277 276 276 275 274 274 273 273 272 272 272 272 272 271 271 271 271 271 271 271 271 271 275 276 277 278 273 271 271 271 272 273 273 273 273 274 275 275 276 277 277 277 277 278 279 279 279 280 280 280 279 277 275 274 274 274 273 273 273 273 273 273 273 275 274 275 275 275 274 275 274 274 273 272 272
283 282 282 281 280 280 279 278 277 277 276 275 275 274 273 272 272 272 271 271 271 271 272 271 271 271 271 271 271 271 271 274 276 277 278 278 278 274 273 274 274 274 274 274 274 274 275 275 275 275 275 275 275 275 276 278 279 279 279 280 280 280 280 277 275 274 274 273 273 273 273 273 273 274 274 275 274 275 275 275 275 274 274 273 274
282 282 281 280 280 279 278 277 276 276 275 275 274 273 272 272 271 271 271 271 271 270 271 271 270 270 270 270 270 271 271 275 277 278 278 278 278 278 276 276 275 275 275 275 275 275 275 274 274 274 274 276 276 275 274 274 277 278 279 279 279 280 280 280 281 277 276 275 274 273 274 274 273 274 275 275 276 274 275 274 275 275 275 274 275
282 281 280 280 279 278 277 276 276 275 274 273 273 272 271 271 271 271 271 270 270 270 270 270 270 270 270 270 271 271 271 274 277 277 277 277 278 278 276 276 275 275 275 275 274 274 273 273 273 273 274 274 274 274 274 275 275 275 275 276 276 277 279 279 279 279 279 276 275 273 275 276 274 275 276 277 275 274 274 273 274 274 274 274 275
281 280 279 279 278 277 276 275 275 274 273 272 272 271 271 271 270 270 270 270 269 269 269 269 270 270 271 271 271 271 271 274 276 276 276 277 277 278 276 276 275 275 274 274 273 273 273 273 273 273 273 273 274 275 275 275 275 275 275 275 275 276 276 276 276 276 276 276 276 275 276 276 276 276 277 277 276 276 276 275 275 275 275 276 276
280 279 278 278 277 277 275 274 274 273 272 272 271 271 271 270 269 269 269 269 269 269 269 270 270 270 271 270 270 269 270 274 275 275 276 277 278 276 275 275 273 273 273 273 273 273 273 273 273 273 273 273 276 278 278 276 275 275 274 275 275 275 275 278 280 280 279 278 278 277 278 278 280 278 278 278 278 278 277 277 277 276 275 274 273
279 278 278 277 276 276 275 274 273 272 272 271 271 270 270 269 269 269 268 268 269 269 269 270 270 270 270 269 269 269 269 272 274 275 275 276 276 274 274 273 273 273 272 273 273 273 273 273 273 273 274 274 276 278 279 278 275 274 274 274 274 274 275 277 279 280 280 280 281 281 281 282 282 283 283 283 282 281 279 277 275 276 274 273 273
279 278 278 277 276 276 275 274 273 272 271 271 270 270 270 269 268 268 268 268 268 269 269 269 269 269 269 269 269 268 268 270 273 274 275 276 276 274 273 272 272 272 272 272 273 273 273 276 276 274 274 274 276 278 279 277 274 274 274 274 274 273 274 275 275 275 278 278 279 280 280 281 281 282 282 282 283 282 278 275 277 277 275 275 273
279 278 278 277 276 275 275 274 273 272 271 271 270 269 269 268 268 268 268 268 268 269 269 268 268 268 268 268 270 269 267 269 273 274 275 276 275 274 273 271 271 271 271 271 272 273 273 275 276 276 275 275 278 278 278 277 275 275 275 274 272 272 272 273 272 272 273 274 274 274 274 275 274 274 276 280 281 281 279 278 278 277 275 275 275
280 278 277 276 275 275 274 273 273 272 271 270 270 269 269 268 267 268 268 268 267 267 268 267 267 267 268 268 269 269 268 268 270 274 274 275 276 274 272 271 270 271 271 271 271 273 273 273 274 276 277 277 277 278 278 279 276 275 274 273 271 269 271 272 273 274 273 272 271 271 271 272 273 274 275 276 277 278 278 279 278 278 276 276 276
276 276 275 274 274 274 274 273 272 271 271 270 269 268 268 268 267 267 267 267 266 266 267 267 266 266 267 267 267 268 268 268 269 273 274 275 276 275 272 272 272 271 271 272 272 272 272 272 272 274 275 276 277 278 279 279 278 275 273 271 270 272 275 273 273 274 270 269 269 270 270 271 273 274 275 276 277 278 279 280 279 279 278 276 276
275 274 273 273 272 272 272 272 271 270 269 269 268 267 267 267 267 267 266 266 265 265 266 266 265 266 266 267 267 267 269 270 268 272 274 275 275 275 273 272 273 272 272 272 272 271 271 271 271 273 275 276 277 278 278 277 277 274 272 275 277 277 273 272 270 268 268 268 268 269 269 270 270 272 274 277 279 279 279 279 280 280 280 280 278
274 273 272 271 271 270 270 270 269 269 268 268 267 266 266 266 266 266 266 265 265 265 265 265 265 265 266 266 267 268 269 270 272 270 273 274 274 275 275 274 276 275 272 271 271 271 271 271 271 273 275 277 277 276 276 277 274 272 275 276 276 276 273 268 268 267 267 267 268 267 268 269 269 270 272 273 275 277 279 281 280 280 280 281 281
273 272 270 270 269 268 268 268 268 267 267 267 267 266 265 265 265 265 265 265 264 263 264 264 265 265 265 266 267 268 269 268 271 272 271 273 274 274 275 275 276 274 273 272 271 271 270 270 271 275 276 275 275 275 275 273 271 274 275 275 274 273 268 266 266 266 267 267 267 267 267 268 269 270 271 272 273 274 274 277 280 281 281 281 281
272 271 269 268 268 267 266 266 266 266 266 267 266 266 265 264 264 264 265 265 264 263 263 264 265 265 266 266 267 267 268 268 267 270 272 272 273 274 274 275 275 275 272 271 271 271 272 275 275 274 273 273 273 273 271 270 272 273 273 273 272 267 265 265 265 266 266 266 266 267 267 268 269 270 271 271 272 273 274 277 280 282 282 282 281
271 270 269 268 268 267 266 266 266 266 266 267 267 266 265 264 264 264 264 265 264 264 265 265 265 266 266 266 266 266 267 267 266 267 270 271 272 273 274 274 274 274 273 272 272 273 274 273 273 271 271 270 268 267 266 267 271 271 271 270 266 265 265 265 265 266 266 266 267 267 267 269 269 270 271 271 271 272 274 275 276 279 281 281 280
271 269 268 267 267 266 266 266 265 266 266 266 266 266 265 265 264 264 264 264 265 266 265 265 265 266 265 266 266 266 266 266 266 267 268 268 269 270 271 271 272 273 271 269 270 269 268 267 267 270 269 269 269 269 268 267 265 265 265 265 265 265 265 265 266 266 266 266 267 267 268 269 270 270 269 270 270 271 272 273 273 275 279 281 280
270 269 268 267 266 266 266 265 265 265 265 265 265 264 265 265 264 264 265 265 266 266 265 265 265 265 265 265 265 265 265 265 266 266 267 267 268 270 271 271 270 269 269 269 269 266 264 265 264 262 262 262 262 261 262 262 263 263 263 264 264 265 267 269 269 267 267 268 268 268 268 268 268 268 269 269 269 269 271 271 272 273 276 279 279
270 269 267 266 265 265 266 265 265 265 265 264 265 265 264 265 265 266 267 268 268 267 266 266 266 267 266 265 264 264 264 264 265 269 268 270 270 270 270 270 270 269 270 272 267 262 259 259 258 259 259 259 259 259 260 261 261 262 262 263 264 264 264 264 264 265 266 267 266 267 267 267 267 268 268 268 268 268 270 270 271 272 273 275 276
269 267 266 265 265 264 264 264 264 264 264 264 263 264 267 269 267 266 267 270 271 271 271 267 267 267 266 266 266 265 264 265 271 273 273 273 273 273 273 272 272 271 272 271 266 257 256 256 257 256 257 258 258 259 259 260 260 261 261 264 264 263 264 264 265 265 266 266 267 267 267 267 267 267 267 266 267 268 269 270 269 271 270 272 274
268 267 265 265 264 264 264 263 264 264 264 263 263 263 265 268 271 271 270 271 272 273 272 272 272 271 267 265 268 270 270 272 273 273 273 273 273 272 272 271 271 271 270 265 258 255 255 256 256 256 257 257 258 258 259 259 260 260 261 262 263 263 264 264 265 266 266 266 266 267 267 267 267 266 266 266 266 267 267 268 269 269 269 270 271
269 267 266 265 265 264 264 263 263 263 263 264 263 264 265 265 267 271 272 273 274 274 273 274 273 272 271 269 268 268 271 273 273 273 272 272 272 271 271 271 270 270 268 265 256 255 255 254 255 256 256 257 258 259 259 259 260 260 261 261 262 263 264 264 266 266 266 266 267 267 267 267 266 266 266 266 266 266 266 266 267 267 268 269 270
270 268 266 265 264 264 264 263 263 263 263 263 264 265 265 265 265 267 270 274 275 274 274 274 274 273 272 272 272 270 271 273 273 272 272 271 271 270 270 270 270 269 266 257 253 254 253 253 254 255 256 256 257 258 259 259 260 260 261 261 262 263 264 265 267 266 266 267 268 267 267 267 267 266 266 266 266 265 265 265 266 267 267 267 269
271 269 267 265 264 264 263 263 263 263 264 264 264 266 266 266 266 267 267 269 270 272 274 274 274 274 273 272 272 272 273 273 272 272 271 271 270 269 268 266 269 267 263 255 254 253 253 253 254 255 256 257 257 258 259 259 260 260 261 262 262 263 264 265 266 266 266 267 267 267 267 267 267 266 265 265 265 265 265 265 265 265 266 266 267
270 267 265 265 265 264 264 264 264 264 264 264 265 266 266 267 267 267 267 267 267 266 267 270 273 274 271 272 273 273 273 272 272 271 271 270 269 268 266 258 256 255 255 254 254 252 252 253 253 255 255 256 257 258 258 259 259 260 260 261 262 263 264 265 265 266 267 267 267 267 267 267 266 266 265 265 264 264 264 264 265 265 265 266 267
268 267 265 264 265 265 265 265 264 264 265 265 265 266 267 266 266 267 267 267 266 265 265 266 267 272 273 273 273 273 273 272 271 271 269 268 267 266 255 254 253 253 253 252 252 253 253 252 253 254 255 256 257 258 258 259 259 260 260 261 262 263 263 264 265 266 267 267 267 267 267 266 266 266 265 265 264 264 264 264 265 265 266 266 267
267 266 265 264 264 264 265 265 265 265 266 265 266 266 266 266 266 266 266 265 264 263 262 260 263 266 266 262 269 272 272 271 270 269 268 266 264 257 253 252 251 251 251 251 251 252 252 252 252 253 254 255 256 257 258 258 259 260 261 261 262 263 264 265 266 267 266 266 267 267 266 266 266 266 265 264 264 264 264 265 265 265 266 266 267
267 266 265 265 264 264 265 265 265 266 265 265 266 266 265 265 265 265 264 263 262 261 260 261 263 261 262 261 265 264 267 269 268 265 263 261 255 251 251 252 251 250 251 249 250 250 251 251 251 252 254 255 255 256 257 258 259 259 260 261 262 263 267 266 266 266 267 267 266 266 266 266 266 266 265 264 264 264 264 265 265 264 265 266 266
267 267 267 267 266 265 264 265 265 265 265 265 265 264 264 263 263 263 262 261 261 260 260 260 260 260 260 259 259 262 262 257 256 253 252 251 251 249 248 249 249 249 249 249 250 250 249 250 251 252 253 254 255 256 257 258 258 259 260 261 262 264 265 265 266 266 267 266 266 266 266 266 266 266 265 264 264 264 264 264 265 265 264 264 265
267 266 266 267 266 266 265 265 265 264 264 264 264 263 262 262 262 261 261 260 259 259 259 259 258 258 258 257 257 257 258 256 255 253 252 250 251 250 248 249 248 247 248 248 248 247 248 249 250 252 252 253 254 255 256 257 258 259 260 261 262 263 265 265 266 266 267 267 266 266 266 266 266 265 265 265 264 264 264 264 264 265 265 265 266
267 267 266 268 266 266 264 264 264 264 264 263 263 262 262 261 261 261 260 259 259 258 258 258 258 257 257 259 263 261 257 255 253 252 251 251 250 248 247 246 247 247 247 247 247 247 247 249 250 251 252 253 254 254 255 257 258 259 260 262 263 264 265 266 266 267 267 267 266 266 266 266 265 265 264 264 266 266 265 265 265 265 265 266 266
267 266 265 266 266 265 264 263 263 262 262 262 262 261 261 260 260 260 259 258 258 258 257 257 257 257 260 265 265 264 255 252 252 251 250 250 249 248 248 247 246 245 245 244 245 247 248 249 250 251 251 252 253 254 255 256 258 259 260 262 263 264 265 266 267 267 267 267 266 266 265 265 266 265 265 267 264 264 264 264 264 265 265 265 266
267 266 266 265 265 264 263 263 262 262 261 261 261 260 260 260 259 259 258 258 257 257 256 256 256 255 258 267 266 263 253 252 252 251 249 249 248 248 247 246 245 244 244 244 245 246 247 248 249 250 251 252 253 254 255 256 258 259 261 262 263 264 265 266 267 267 267 267 266 266 265 265 265 265 265 265 264 264 264 264 264 264 265 265 266
266 265 265 264 264 263 262 262 261 261 261 261 260 259 259 259 259 258 258 257 256 256 256 256 255 255 254 261 259 254 251 251 250 248 248 248 247 247 246 244 242 242 243 244 245 246 247 248 249 250 251 252 253 254 255 256 258 259 261 262 263 264 266 266 267 267 267 267 266 265 265 265 265 265 264 265 264 264 264 264 264 264 264 265 266
265 264 263 263 262 262 261 261 261 261 259 259 258 258 258 258 258 257 257 256 255 255 255 255 255 255 253 252 252 252 251 250 249 248 248 247 247 245 243 241 241 242 243 245 245 245 246 248 249 250 251 252 253 254 255 257 259 261 262 263 263 265 266 267 267 268 268 267 266 265 264 264 264 264 264 264 265 264 264 264 264 265 264 265 265
264 263 262 262 261 261 261 261 260 259 258 257 257 257 257 257 257 257 256 255 255 254 254 254 254 253 252 251 251 251 249 248 248 247 247 247 245 243 241 241 242 242 243 244 246 246 247 248 249 250 251 252 253 254 256 258 260 262 263 264 265 267 268 268 269 269 268 267 266 265 264 264 264 264 265 265 264 264 264 264 264 264 264 264 265
263 263 262 261 261 260 260 259 258 258 257 257 257 257 256 256 256 255 255 254 254 253 253 253 252 251 251 251 250 250 249 249 247 246 246 244 243 242 241 241 242 243 243 245 244 247 247 249 249 250 251 252 253 255 257 259 261 262 263 265 266 268 268 269 269 270 269 268 266 265 264 264 264 264 264 265 264 264 264 264 264 264 264 265 265
263 262 261 261 260 259 258 258 257 257 257 257 257 256 256 255 255 254 254 253 253 252 252 252 251 251 250 250 249 248 248 246 245 246 244 244 242 241 240 241 243 243 244 245 245 247 248 248 249 250 251 252 253 255 257 259 261 262 263 265 267 268 269 269 270 270 270 268 266 265 264 264 264 264 264 264 264 264 263 263 264 264 264 265 265
262 261 260 260 259 258 258 257 257 257 256 256 255 255 255 254 254 254 253 253 252 252 252 251 250 250 250 249 249 248 247 246 244 243 243 243 242 241 241 242 244 243 243 244 246 246 247 248 249 250 251 252 253 255 257 259 261 262 263 265 267 268 269 269 270 271 269 268 266 265 265 264 264 264 264 264 264 264 264 264 264 264 264 264 265
261 261 260 259 258 258 258 258 257 257 256 255 254 254 254 254 253 253 253 252 252 251 251 251 250 250 249 249 248 247 246 246 245 245 244 243 241 240 241 242 241 242 242 243 245 246 247 248 249 250 251 252 253 255 257 259 260 262 263 265 268 269 269 270 271 270 270 268 266 265 264 264 264 264 264 264 264 264 264 264 264 264 264 264 264
260 259 259 259 259 258 258 256 256 256 255 255 254 254 253 253 252 252 252 252 252 251 250 250 249 249 249 249 248 247 246 245 244 244 243 242 241 241 242 242 243 242 243 244 245 246 246 247 249 250 251 253 254 255 257 259 260 263 264 267 268 269 270 271 271 271 270 268 266 265 264 264 263 263 264 264 264 264 264 264 264 264 263 264 264
Wind_Speed
13 14 12 13 13 14 15 13 13 11 10 12 12 11 11 11 11 11 9 11 11 11 11 11 11 11 10 9 9 9 8 8 7 6 6 6 6 6 6 6 7 6 5 5 4 4 5 7 8 7 5 7 7 6 7 7 7 7 7 8 9 8 9 11 15 20 21 15 15 20 19 14 18 16 13 15 13 10 13 13 13 13 14 13 14
15 16 14 12 13 13 11 9 9 9 11 11 12 11 11 12 11 10 12 10 11 12 12 10 10 11 10 9 9 8 8 7 6 7 7 7 6 5 6 7 6 6 4 5 5 5 5 7 8 7 5 7 7 8 7 7 7 8 8 8 9 9 9 10 13 15 23 20 18 17 20 14 18 16 14 15 16 12 15 16 13 11 12 12 14
12 10 10 12 13 10 8 9 10 11 12 11 12 12 11 11 11 13 12 10 9 11 12 11 11 10 9 9 8 8 8 7 7 7 7 7 7 6 6 6 6 6 6 6 5 4 6 7 8 7 5 7 8 8 7 8 7 9 10 8 10 10 9 11 11 15 19 22 19 19 20 18 15 17 17 15 15 13 14 15 14 11 11 13 14
12 11 11 11 10 10 11 10 11 12 14 13 14 12 11 11 11 12 11 10 12 9 10 11 10 10 10 9 8 8 8 7 7 6 7 6 6 6 6 6 5 5 6 5 5 5 7 8 8 7 7 8 8 8 7 7 7 8 9 9 10 12 11 11 14 14 16 21 18 18 17 18 19 15 15 14 16 15 15 13 13 14 13 13 13
10 12 11 11 11 12 12 12 14 14 15 13 14 12 12 11 11 12 11 11 10 10 9 9 10 10 10 11 10 10 9 9 8 7 6 6 6 6 6 5 5 6 5 5 6 7 8 9 9 7 7 9 9 8 7 9 9 9 10 10 11 11 11 12 13 13 15 21 20 16 18 17 19 19 16 18 18 15 14 15 14 15 15 14 13
11 11 12 13 13 14 14 14 15 17 16 13 13 13 12 12 12 10 12 13 11 11 12 10 11 12 11 11 10 9 9 8 8 7 6 5 5 5 5 5 5 5 6 6 6 7 8 9 8 8 8 10 10 9 9 10 10 10 12 12 12 12 14 15 15 15 15 16 19 23 16 15 19 21 15 15 18 15 16 17 17 16 16 15 13
11 12 12 13 13 14 15 16 15 14 14 12 11 11 12 12 13 13 12 12 13 12 11 11 9 10 9 9 9 9 8 7 7 6 6 6 6 5 5 5 5 5 5 6 7 8 8 8 9 9 10 10 11 10 10 11 11 13 13 14 15 15 15 14 15 15 19 17 15 18 23 16 18 20 17 14 18 16 15 20 18 17 14 14 14
12 13 13 13 14 15 15 13 13 13 11 11 12 12 12 12 12 11 10 11 11 11 12 11 8 8 8 8 8 7 8 7 6 6 6 6 5 5 5 5 6 6 6 7 7 8 9 9 9 10 11 11 11 11 12 12 11 14 14 14 15 15 15 14 14 13 15 18 16 16 20 19 16 20 16 16 14 19 13 17 22 20 16 12 13
12 13 13 14 15 14 12 11 10 11 12 12 12 12 12 11 10 10 10 10 9 9 9 9 9 8 7 8 7 6 6 7 6 6 6 6 6 5 5 5 5 5 5 6 7 9 9 9 9 10 11 16 21 20 19 19 13 12 11 10 10 11 12 12 11 11 14 15 17 16 18 16 15 19 12 15 13 19 14 15 21 20 15 15 13
13 13 15 16 14 12 12 11 11 11 12 12 12 12 12 11 11 11 11 10 8 8 8 8 9 9 10 7 6 6 7 5 7 12 10 6 5 5 5 5 6 5 6 7 9 9 9 10 10 18 20 21 21 22 23 24 26 21 16 14 14 13 14 14 14 12 11 11 12 11 12 14 16 17 12 18 15 15 20 16 19 21 15 15 19
13 14 16 13 12 11 11 12 12 13 13 12 11 13 13 11 11 10 10 10 11 10 10 11 10 9 9 7 7 5 5 5 12 12 12 14 8 7 5 5 6 7 8 9 9 10 10 11 11 13 15 17 16 22 24 26 26 27 29 28 24 19 16 16 15 14 14 15 15 15 16 18 21 15 19 14 16 13 17 16 16 14 18 15 21
14 14 13 11 12 13 13 13 13 13 13 13 13 12 11 11 11 11 11 11 10 10 11 11 8 6 5 6 6 6 6 9 13 12 12 12 10 6 6 6 5 7 8 9 9 10 10 10 10 10 9 11 11 13 17 23 26 27 29 28 27 28 27 20 17 15 13 13 15 18 17 18 20 19 16 18 19 19 15 14 17 18 17 17 17
13 12 11 12 13 13 13 14 14 13 13 12 11 12 12 12 12 12 13 11 10 11 11 11 8 6 6 7 7 7 6 11 12 12 11 10 10 8 3 4 6 8 9 9 10 10 9 11 11 11 10 17 15 13 14 15 21 27 28 29 29 30 29 31 30 23 17 17 18 21 19 21 19 19 17 19 16 21 17 17 16 14 15 19 17
12 12 12 13 13 13 13 13 13 13 12 12 12 13 13 14 12 10 9 9 10 9 8 9 8 7 7 8 7 7 7 9 11 10 9 9 9 8 4 6 7 9 9 9 9 10 10 11 11 11 11 12 12 13 14 15 15 14 15 14 14 20 26 29 31 33 28 21 20 21 24 20 24 23 23 21 21 20 17 18 16 17 17 19 20
12 12 13 13 12 12 12 12 12 11 12 12 12 12 12 10 11 9 9 10 11 11 10 10 8 8 8 6 6 6 5 11 11 10 9 9 9 9 5 6 7 6 6 8 10 10 11 11 12 12 13 14 12 14 16 14 13 13 14 16 15 15 16 16 17 18 18 18 19 22 22 23 23 23 22 18 20 19 19 20 19 19 17 20 19
13 11 12 12 13 12 13 12 12 12 12 12 13 13 12 12 13 10 10 8 8 8 7 8 8 9 9 8 7 6 6 11 10 9 9 9 10 5 4 5 4 5 8 8 9 9 10 11 11 13 14 15 18 24 21 17 15 16 16 16 17 19 18 19 28 25 23 20 18 18 19 22 28 24 23 20 17 17 16 16 16 15 15 17 19
13 14 13 13 13 13 13 14 14 14 14 14 15 14 14 12 11 9 11 11 12 11 11 9 7 9 10 10 7 5 5 9 10 10 9 9 8 3 3 3 6 7 8 8 8 9 10 11 12 12 14 14 19 24 24 23 15 15 17 19 19 17 15 15 20 28 29 29 33 35 38 39 39 40 39 42 32 25 18 18 17 12 15 12 16
14 14 14 14 14 14 14 15 16 15 15 17 16 14 12 10 12 11 13 13 11 8 6 10 11 10 10 8 7 7 6 8 11 10 11 10 8 5 5 5 4 5 6 8 8 9 11 18 17 14 15 15 20 23 24 20 14 16 17 17 17 17 19 18 14 16 26 32 35 35 34 33 35 39 40 39 39 31 19 21 18 12 15 14 13
13 16 16 14 13 13 14 15 16 16 17 16 15 16 15 14 11 10 10 10 11 9 11 9 8 6 5 7 12 9 6 8 12 11 11 10 8 4 5 4 5 5 5 6 8 9 10 11 17 17 16 18 24 23 24 20 15 15 14 17 19 20 18 17 19 19 18 15 15 17 19 25 25 23 24 37 37 34 23 21 17 14 17 16 14
13 8 8 11 11 12 13 15 15 16 17 14 13 13 11 11 11 11 9 8 9 9 10 9 8 7 7 8 8 9 8 6 8 12 10 10 10 6 5 5 5 5 6 7 8 8 10 11 12 17 20 20 22 24 24 26 18 15 13 13 12 18 16 18 18 18 20 16 18 18 19 18 18 19 18 20 20 20 22 18 16 14 15 15 13
3 5 6 8 11 12 11 14 16 13 13 14 12 11 11 12 12 12 12 9 8 9 8 5 7 8 8 8 7 7 7 7 7 11 10 10 11 8 3 4 4 6 6 7 6 7 8 9 10 15 19 21 22 24 26 26 24 16 12 11 14 19 24 17 20 24 16 17 17 15 14 14 14 16 18 18 17 15 15 16 15 14 15 15 15
7 7 8 7 8 10 11 9 10 11 11 12 13 11 9 10 12 13 11 12 13 12 8 6 6 7 7 8 8 8 9 12 5 8 10 10 9 10 5 5 6 6 6 5 7 7 10 10 9 14 20 21 23 25 26 24 25 14 14 23 28 29 21 16 14 14 13 14 13 13 13 14 16 16 15 15 14 14 14 14 15 16 15 14 14
7 7 8 9 8 8 8 11 11 9 11 11 13 13 11 11 11 12 13 12 13 12 11 6 6 7 6 6 6 7 7 7 12 8 11 11 11 10 10 8 9 5 4 5 7 8 8 10 11 18 21 22 23 24 23 25 20 14 24 25 26 29 23 11 13 13 12 13 13 14 13 12 15 15 15 15 16 17 16 14 15 15 15 16 17
9 9 8 9 9 8 8 9 9 9 11 11 11 12 12 11 11 11 12 12 12 11 9 8 6 7 8 7 6 6 6 5 8 11 9 11 10 10 9 9 8 5 5 5 5 7 9 9 11 21 22 23 22 21 22 20 15 23 23 25 25 23 13 12 11 12 13 13 14 14 14 15 14 14 14 15 17 17 18 19 17 16 16 15 17
10 10 10 10 11 10 10 10 10 10 11 12 13 12 12 13 12 10 12 11 11 11 10 9 7 6 6 7 7 6 5 5 4 6 10 9 9 9 8 7 7 9 5 3 5 7 11 18 20 20 21 21 21 20 17 17 21 22 24 24 22 11 11 11 12 12 13 13 14 14 15 15 15 17 17 18 19 19 17 16 17 16 16 17 17
10 10 10 9 10 11 13 11 11 11 13 11 12 12 14 14 12 11 11 11 11 10 9 6 5 6 5 6 7 7 6 5 5 4 6 7 7 7 8 7 7 9 9 6 11 14 15 15 18 18 16 15 12 10 9 12 20 22 22 20 11 10 10 11 12 13 13 14 14 15 15 15 16 17 19 18 16 14 14 14 16 15 13 13 14
10 9 11 10 10 12 14 11 11 10 11 10 9 10 11 12 13 13 12 13 11 10 7 7 6 7 6 6 6 7 6 6 5 4 4 4 3 4 5 4 7 8 4 4 8 5 5 8 9 14 13 17 17 16 15 16 12 11 9 9 9 9 10 9 11 13 15 14 14 14 14 16 17 16 16 14 14 14 14 15 15 15 15 13 14
12 12 12 11 10 12 13 16 17 13 13 13 13 12 8 8 8 10 11 14 14 12 10 8 8 8 8 8 7 7 7 6 6 6 6 5 5 5 5 4 4 3 2 6 3 1 3 7 9 6 6 7 7 5 6 7 8 10 10 9 9 10 13 19 18 12 12 13 13 14 14 14 14 14 14 14 15 15 14 14 14 15 15 15 13
11 11 11 10 11 10 10 11 11 11 11 10 8 10 10 7 6 2 9 10 13 15 15 13 12 11 10 12 10 8 5 7 7 9 8 9 8 5 3 3 3 3 5 7 2 2 3 5 4 6 5 7 8 8 8 8 8 8 10 10 10 10 9 9 11 12 13 13 14 14 15 14 14 14 14 14 15 15 13 13 14 13 15 14 15
11 11 11 11 10 11 10 11 11 11 12 10 11 8 10 10 9 10 11 11 10 7 10 11 12 11 10 8 8 11 11 8 13 16 14 11 8 6 5 5 5 4 5 4 5 1 3 4 5 5 6 6 7 8 9 9 10 10 9 11 12 10 10 10 11 12 13 14 14 14 14 14 14 14 14 15 15 14 13 15 14 13 14 14 14
10 10 11 12 13 14 12 12 11 11 11 10 7 10 10 10 16 14 10 12 12 13 12 11 17 15 11 10 8 10 12 15 14 11 10 8 6 5 3 3 3 2 3 4 3 1 2 4 6 5 5 6 7 8 9 9 10 11 11 10 10 11 12 11 11 12 14 14 14 14 14 14 14 14 15 15 16 15 14 12 12 13 13 14 14
12 13 13 12 12 13 12 13 13 13 12 11 12 10 11 12 10 14 15 15 16 15 14 16 17 16 15 12 10 8 12 12 11 11 10 8 6 5 4 4 3 3 5 5 1 2 2 3 4 5 6 6 7 8 8 9 9 10 11 12 12 10 11 12 13 14 14 14 14 14 14 14 14 14 14 15 16 14 14 14 12 13 14 13 14
13 12 11 11 12 13 12 13 13 13 14 14 11 11 11 10 13 12 13 18 18 17 17 18 18 17 17 15 14 10 10 11 13 11 9 8 7 5 5 5 4 4 7 4 1 2 3 3 3 5 5 7 7 8 8 8 9 10 10 11 12 13 12 13 16 13 13 14 15 14 15 14 14 14 14 14 14 14 14 14 13 12 13 14 15
15 11 12 13 13 12 12 12 12 13 12 13 16 16 15 14 15 16 16 13 13 14 17 19 18 17 16 16 15 14 13 13 13 11 10 9 8 6 6 3 6 7 5 2 0 2 3 3 4 4 5 6 7 8 8 8 9 10 11 10 11 12 13 13 12 13 13 14 14 14 15 14 14 14 14 14 13 13 13 13 12 13 13 13 14
11 10 15 14 12 13 12 12 12 12 12 14 15 14 14 13 14 15 16 17 17 15 11 11 15 18 14 13 14 14 13 13 13 11 11 9 8 9 8 4 2 3 3 1 0 1 3 3 4 5 5 7 7 7 8 10 10 10 11 11 11 11 12 12 13 14 14 14 15 14 15 15 15 13 13 14 15 14 14 13 12 12 14 15 14
12 10 11 15 12 11 12 13 12 12 13 13 13 11 11 12 13 13 12 13 14 13 10 7 8 14 19 16 16 14 15 13 12 12 11 9 6 6 3 2 1 0 1 2 1 2 2 3 3 5 5 6 7 7 8 10 11 11 11 11 12 12 12 13 13 14 15 15 15 16 16 15 14 14 14 14 15 15 14 14 14 14 14 14 14
12 11 11 12 12 11 11 11 11 12 12 11 12 10 10 10 10 11 11 12 11 10 12 12 10 10 8 2 8 16 15 14 13 13 11 10 10 7 4 3 2 1 2 2 3 3 4 4 4 6 6 6 8 8 9 10 11 11 11 11 11 12 12 12 15 15 15 14 14 15 15 15 15 15 14 16 15 15 14 14 13 15 15 17 18
14 13 12 12 12 12 12 12 13 16 13 13 12 11 11 11 11 12 12 12 13 14 12 10 10 11 12 7 4 4 10 13 14 11 8 8 6 3 2 2 1 0 1 2 2 4 5 5 5 5 6 6 8 9 10 11 10 10 11 11 12 11 19 17 17 15 14 13 14 15 14 14 14 14 15 15 15 15 13 14 14 14 16 17 14
10 11 13 17 14 13 12 12 13 14 13 13 12 12 12 12 12 11 11 11 12 11 10 10 10 10 9 7 7 6 10 5 5 4 3 2 2 1 1 1 0 0 1 3 4 3 5 6 6 4 5 6 8 9 10 10 10 10 11 11 12 12 13 12 14 14 13 13 15 14 14 14 14 14 14 14 15 15 16 15 14 14 16 16 15
11 10 13 21 13 13 12 12 13 13 13 14 13 12 12 12 13 12 12 12 12 11 11 11 10 9 8 8 8 7 8 7 6 5 5 2 1 0 0 0 0 1 3 5 5 5 4 5 4 5 6 7 8 9 9 9 10 11 11 11 12 12 13 13 13 13 13 14 15 15 15 15 14 14 14 13 14 14 15 15 15 16 16 16 16
10 10 12 16 14 13 12 13 13 14 13 13 13 13 13 12 11 11 12 12 11 11 10 9 9 7 8 10 14 11 8 7 6 5 5 4 2 1 1 1 2 3 4 4 5 4 3 4 5 6 7 8 8 8 9 9 10 10 11 11 11 12 13 13 13 13 14 14 15 15 14 15 15 15 16 15 16 16 13 13 14 13 15 15 16
11 11 12 12 15 13 13 13 12 13 13 13 13 13 13 12 12 12 12 12 11 11 10 9 8 8 11 19 17 15 8 6 6 6 4 2 2 2 2 3 3 4 6 5 4 4 4 4 5 6 7 8 8 9 8 9 10 10 11 11 12 13 13 13 13 14 14 14 15 15 16 16 17 16 16 17 15 14 15 14 14 15 15 14 15
12 11 12 12 13 14 14 13 13 13 13 13 12 11 13 14 13 12 12 12 12 11 11 10 8 7 6 14 15 14 7 6 5 6 4 3 2 2 3 4 5 6 5 4 3 2 3 4 6 7 7 9 9 8 9 9 10 11 11 12 13 13 14 13 13 14 13 14 15 16 17 16 16 15 15 15 15 15 14 17 16 15 16 15 14
11 10 10 11 11 11 11 12 13 12 12 13 14 13 12 11 11 12 12 12 11 10 10 10 9 8 1 5 11 8 7 6 6 5 4 2 2 3 5 5 6 5 3 3 3 2 3 5 6 8 8 8 8 8 8 9 9 10 11 12 12 13 13 14 14 14 14 15 16 16 17 17 17 16 16 16 16 17 17 16 16 16 16 15 15
11 11 12 12 12 12 12 12 12 12 12 13 12 12 11 12 12 11 11 11 10 10 9 9 8 7 7 8 7 8 6 6 6 5 3 3 3 4 5 5 4 4 3 4 3 3 4 5 6 7 9 9 9 8 9 9 10 10 10 12 12 12 14 15 15 14 13 15 16 16 16 16 17 16 16 17 16 16 15 14 15 18 18 15 14
11 12 12 13 13 12 13 12 11 12 13 16 15 15 13 12 10 11 10 10 10 11 10 9 8 7 6 7 6 7 6 6 6 3 3 2 4 6 5 4 3 3 3 4 4 4 5 5 6 7 8 9 9 9 9 10 10 10 11 11 12 12 13 14 15 13 13 16 16 15 16 16 16 16 18 17 16 16 16 18 14 14 15 16 16
12 12 12 12 13 13 12 13 12 13 17 18 14 14 10 9 10 10 9 10 10 10 10 9 8 7 6 7 7 7 6 6 5 3 3 3 4 5 4 3 2 2 3 3 3 5 5 6 6 6 7 8 9 10 10 9 9 10 10 11 11 13 13 15 15 12 13 15 15 14 15 15 16 17 18 18 17 16 16 14 17 20 18 16 17
12 11 12 12 13 13 13 13 14 16 14 11 12 11 11 11 11 10 9 9 10 9 9 8 7 7 6 6 5 6 5 5 3 2 2 4 5 4 3 2 2 2 4 4 4 5 5 6 6 6 7 8 8 9 10 10 10 10 10 11 11 14 21 24 15 12 13 15 15 14 15 15 16 16 17 18 18 17 17 17 17 16 16 17 17
11 12 12 12 12 13 13 14 14 12 12 12 12 12 11 11 10 10 9 9 9 8 8 8 7 6 6 6 6 5 5 5 2 1 2 4 4 5 2 1 2 2 2 4 5 5 6 6 6 6 7 8 8 9 9 10 11 11 11 10 15 26 28 27 18 13 18 16 14 14 14 15 16 17 17 18 18 17 17 18 15 16 17 17 16
11 11 11 12 11 11 11 11 13 14 11 10 14 14 12 11 10 10 9 9 8 8 7 7 7 7 7 6 6 5 5 4 3 2 3 4 5 3 2 1 2 2 2 4 5 5 6 5 6 7 7 8 8 8 9 10 11 12 11 13 22 27 27 27 22 21 18 14 15 13 14 15 16 16 15 16 17 19 18 17 17 17 18 18 17
10 11 11 12 11 11 11 11 9 9 8 9 8 10 12 13 12 10 9 9 9 8 7 7 7 6 6 5 5 5 5 4 3 2 3 4 4 2 1 2 2 3 3 4 5 5 5 5 6 7 7 8 8 8 9 10 11 12 18 23 25 28 28 25 19 21 24 20 14 14 14 16 16 17 17 16 17 17 19 19 18 16 16 16 16
Wind_Direction
203 209 203 206 200 198 200 192 193 188 182 186 184 184 180 178 178 172 154 173 163 165 167 169 168 169 167 169 170 173 173 176 174 171 177 184 187 192 192 191 205 218 210 225 216 222 235 246 251 253 244 249 250 251 247 248 247 247 246 245 245 239 235 247 259 272 283 278 283 289 296 297 290 289 288 286 289 285 279 279 279 276 278 277 276
205 206 199 201 203 201 195 187 183 181 185 185 187 182 179 179 170 160 173 168 167 168 169 169 169 168 168 171 173 173 175 172 171 170 181 183 192 190 193 198 210 218 214 232 228 228 236 245 253 251 242 246 250 251 249 252 247 251 246 242 249 245 238 248 257 269 278 289 285 287 288 287 284 289 290 289 290 287 283 283 277 269 271 272 273
209 205 198 196 200 193 179 183 180 181 185 188 191 185 180 172 168 169 170 166 172 171 170 169 171 169 170 171 169 171 171 171 173 175 181 183 191 197 194 199 209 217 221 230 229 228 240 247 254 253 249 252 250 253 251 253 249 251 254 249 253 251 243 239 254 263 271 278 284 288 287 292 282 291 290 286 284 286 282 279 281 271 263 264 270
196 193 195 196 186 176 182 181 179 185 190 191 191 185 177 174 170 171 169 166 171 174 168 170 168 171 169 166 167 165 167 170 171 177 182 186 192 199 200 206 212 220 225 233 237 236 245 254 253 253 251 255 255 256 250 249 252 256 262 259 257 257 252 247 245 256 266 274 276 277 284 288 286 283 285 283 285 286 281 275 267 266 265 263 261
188 191 189 187 181 182 184 182 186 188 194 191 190 180 179 173 173 172 166 170 172 164 170 168 169 170 172 171 170 171 171 168 172 178 182 183 189 194 202 206 217 223 229 234 241 243 248 250 257 253 255 259 262 258 256 257 258 259 261 260 258 259 255 251 248 244 259 267 274 269 274 276 279 281 285 290 287 279 271 269 270 267 265 259 262
191 185 182 182 186 186 186 186 191 194 193 188 185 180 176 175 173 174 172 171 170 174 172 175 176 177 175 172 168 166 163 167 172 175 178 179 184 194 201 214 221 228 233 236 238 244 248 250 253 255 257 262 267 265 263 262 262 260 258 257 255 252 251 249 247 242 241 254 263 276 265 269 281 277 275 273 278 283 279 274 272 267 270 268 258
184 184 184 189 186 190 189 193 192 191 188 184 177 177 179 177 175 177 176 172 172 174 177 175 180 174 169 160 163 161 160 163 167 174 176 178 184 192 205 215 225 229 237 238 244 244 247 251 255 255 258 259 264 265 269 264 260 256 249 254 253 253 255 254 256 257 260 254 257 260 270 267 272 276 278 263 266 266 276 286 282 273 264 263 269
184 186 184 189 192 194 195 190 187 186 181 176 178 180 177 178 180 173 169 173 175 176 175 176 172 166 163 161 157 154 158 163 167 171 175 176 183 199 204 219 228 235 237 243 243 249 252 255 253 252 256 258 258 263 258 262 261 265 265 261 258 256 258 257 254 252 261 259 257 266 264 267 274 265 273 275 268 271 257 276 276 284 279 260 255
183 185 187 191 197 194 186 183 180 176 176 176 177 178 179 177 172 169 171 172 172 172 169 164 159 159 155 158 152 147 145 168 167 172 176 184 187 202 208 216 217 220 232 243 252 252 252 251 251 251 255 262 266 268 270 270 267 260 251 236 239 244 253 255 252 253 255 256 263 259 261 264 262 264 263 264 247 266 266 268 270 273 280 273 255
183 187 191 197 193 184 181 176 175 172 173 178 178 176 176 174 172 170 172 168 161 157 158 162 166 166 163 153 149 143 161 162 182 193 192 183 188 191 206 209 220 232 243 254 255 251 254 259 261 268 271 271 273 274 276 276 276 277 279 277 274 273 273 276 274 270 262 260 255 262 258 256 262 267 254 265 258 267 265 265 267 271 274 266 274
190 190 197 194 182 175 174 176 169 177 179 175 176 175 175 172 170 167 165 162 161 163 164 169 172 168 161 151 153 155 156 167 197 206 210 205 190 194 198 211 216 234 246 253 258 263 266 267 270 271 272 276 278 280 280 278 277 276 277 279 279 279 283 282 280 276 275 272 273 271 268 273 275 273 274 276 271 265 265 270 262 263 272 276 282
191 196 194 179 178 177 178 172 176 179 174 179 175 174 168 168 168 168 164 163 165 161 171 163 132 142 133 141 151 157 165 190 199 204 207 214 209 184 185 202 225 247 250 252 259 265 270 274 274 274 272 274 276 275 275 275 278 280 281 280 280 281 279 280 284 283 278 281 279 275 277 272 275 279 275 277 277 276 268 265 267 270 266 265 268
192 191 184 181 183 180 175 176 178 177 179 172 170 168 169 169 170 168 173 169 160 168 168 163 159 142 148 153 161 170 170 190 196 199 206 213 221 224 197 218 241 246 251 256 261 266 274 278 278 276 277 281 281 276 274 273 274 278 281 283 284 283 282 281 279 278 281 277 276 278 274 279 279 274 272 274 277 275 275 270 268 268 268 275 273
188 188 182 186 184 179 176 176 178 176 169 169 169 172 172 176 173 169 160 157 163 162 158 160 154 151 160 165 164 169 169 183 192 199 206 214 220 224 225 232 241 246 248 258 267 273 275 275 277 279 279 279 273 271 273 274 274 273 272 271 272 277 281 282 281 282 277 275 271 270 273 270 273 276 274 271 270 269 268 266 260 261 260 261 267
186 184 186 186 178 176 175 175 173 168 168 168 170 173 173 167 164 162 160 163 164 166 163 165 169 165 166 162 151 154 157 178 188 195 198 210 217 224 229 235 239 242 257 266 267 268 273 273 276 279 280 280 276 277 282 282 280 281 281 280 278 281 279 275 270 271 266 265 261 264 269 270 268 269 267 263 255 257 257 257 257 254 258 263 261
187 181 185 183 179 176 171 170 168 166 167 168 171 173 173 170 165 160 156 156 154 151 158 163 161 162 159 155 141 155 168 185 191 197 204 208 213 218 221 227 237 261 260 261 268 272 272 274 275 276 276 277 280 284 288 292 291 289 289 289 287 283 275 272 278 277 281 275 276 274 275 277 279 276 272 267 260 255 251 254 256 254 256 257 257
188 187 187 180 177 174 171 169 169 169 170 171 176 175 170 167 163 159 160 167 166 171 172 166 151 152 151 149 149 150 162 189 192 197 203 205 210 194 203 225 230 242 260 267 271 274 274 273 274 276 278 279 283 289 293 297 297 297 292 288 285 284 283 286 290 290 290 289 289 289 288 287 286 286 284 282 279 277 274 267 255 243 251 249 256
191 187 187 181 178 174 173 171 172 172 173 178 177 174 167 164 168 169 168 168 174 170 154 135 146 140 147 157 163 161 164 184 192 197 198 203 207 188 203 202 235 249 262 271 274 274 273 276 277 279 283 283 287 293 298 304 298 291 287 288 294 298 297 299 301 300 295 290 285 285 286 288 290 289 287 284 281 277 270 268 269 262 257 255 260
186 191 190 179 174 172 172 173 173 174 178 179 173 170 172 171 166 166 172 170 172 152 139 144 137 141 148 153 172 167 163 188 194 192 196 202 207 183 192 207 230 244 263 268 271 278 277 278 281 281 283 286 293 299 302 303 294 293 301 304 300 297 300 308 301 295 292 293 294 304 299 293 289 284 280 281 278 275 266 261 263 255 258 260 259
199 175 156 166 170 170 174 175 176 176 177 171 171 170 160 156 164 166 165 161 157 163 152 140 147 152 155 157 177 174 174 181 191 190 191 199 208 196 181 204 228 243 265 269 272 263 278 287 286 285 286 292 299 302 304 305 307 308 304 297 300 300 302 294 294 300 305 310 307 301 294 290 284 280 276 275 270 260 260 252 247 244 249 254 253
128 160 157 161 169 175 174 178 175 175 170 167 162 160 165 163 158 162 158 153 151 160 162 157 144 154 161 167 171 177 175 169 184 186 191 202 212 216 179 210 230 251 252 258 261 287 291 284 285 287 291 298 302 305 308 310 309 306 304 303 295 294 304 307 309 314 312 306 298 293 290 288 285 285 283 280 269 262 253 247 241 235 239 247 250
135 144 162 169 169 171 171 167 166 164 159 155 161 162 161 159 162 160 156 156 159 164 166 161 158 157 163 170 174 176 181 177 172 189 194 203 210 218 201 214 235 237 251 264 282 279 284 288 288 291 296 301 306 310 311 309 309 312 302 297 301 307 311 312 316 310 298 297 293 290 292 292 296 294 292 291 286 274 261 252 245 242 239 236 239
145 147 151 159 166 167 165 161 159 158 160 162 159 159 157 157 162 161 159 158 159 162 168 160 155 158 161 172 181 177 170 174 175 174 191 199 206 214 222 230 248 256 276 272 273 287 292 289 289 289 298 308 311 310 309 310 314 304 302 306 309 312 317 314 302 297 292 290 291 291 293 292 294 295 295 302 305 303 296 270 253 247 242 242 240
149 150 154 159 156 157 156 154 152 154 157 156 159 157 161 162 162 167 165 162 159 160 164 164 163 159 163 169 174 173 165 140 171 175 189 200 209 217 231 238 248 261 261 273 286 287 291 285 284 299 311 311 309 310 312 312 308 307 311 314 315 317 313 300 292 290 291 291 294 296 297 296 294 292 296 299 297 293 293 291 276 257 248 246 244
155 162 162 161 160 154 149 156 157 156 161 160 161 164 162 163 163 171 167 168 163 160 166 169 170 163 163 168 162 155 137 139 139 185 194 205 215 226 231 235 254 271 281 261 282 277 283 293 304 311 310 311 313 315 314 310 310 314 316 316 317 307 302 298 298 295 293 296 297 298 298 296 292 292 293 295 294 292 286 285 280 265 252 248 246
166 167 163 161 162 154 152 156 160 163 164 169 170 168 166 169 168 167 172 170 167 166 161 158 151 161 166 157 156 152 151 145 158 180 200 207 217 226 227 240 264 274 276 290 289 290 294 304 309 310 311 312 315 313 307 308 313 315 314 313 303 297 296 299 299 299 297 299 298 298 300 301 301 300 297 294 292 290 296 299 303 292 269 253 250
163 161 167 164 158 163 162 164 163 166 170 167 169 169 170 172 170 171 173 170 170 167 154 151 153 169 167 156 146 151 155 165 170 186 186 197 220 230 237 243 266 274 285 279 281 290 312 313 309 308 311 312 312 310 309 311 309 306 300 296 295 295 294 291 299 304 302 297 295 294 299 301 300 299 300 299 296 297 298 296 295 295 293 271 256
172 174 173 170 172 176 176 169 167 171 176 172 171 174 177 179 175 179 173 172 164 167 165 162 170 170 162 157 150 156 172 173 183 186 192 189 210 207 213 198 218 181 220 267 246 1 322 320 315 303 303 307 304 299 298 297 300 302 300 301 297 292 294 300 300 292 292 294 293 294 293 297 299 298 299 297 298 298 300 295 294 294 296 295 274
173 171 168 167 177 178 175 177 180 171 168 168 173 177 169 166 167 96 183 174 171 165 169 179 178 174 161 160 155 159 164 184 190 190 195 195 196 188 195 186 180 201 251 271 79 20 356 315 298 315 318 315 321 315 310 307 302 298 301 304 305 305 301 297 303 304 304 303 299 299 299 300 299 299 299 298 298 299 298 294 293 296 298 292 288
173 176 174 175 173 173 177 176 177 174 172 167 162 160 186 184 172 172 173 188 191 201 183 176 172 161 157 160 168 167 172 176 188 191 200 201 194 198 207 214 221 223 260 1 70 48 297 300 301 305 311 320 316 314 314 314 312 315 313 312 307 302 302 303 301 302 306 304 299 298 300 302 301 303 302 300 300 297 296 296 295 295 295 292 291
183 178 174 186 183 179 176 175 179 176 174 164 143 144 154 177 181 184 178 175 181 178 175 167 155 152 147 144 161 155 152 165 176 185 174 165 182 182 189 205 214 252 38 53 44 19 301 317 309 312 311 313 307 306 310 312 315 314 313 309 300 302 306 305 306 308 308 304 299 298 301 304 303 304 304 303 302 300 300 295 291 293 291 292 290
186 191 190 188 175 179 178 177 173 174 174 170 165 154 153 150 164 177 173 169 167 164 160 157 152 145 145 146 150 157 168 178 174 160 157 160 163 163 163 166 167 104 76 65 91 318 296 286 302 313 316 309 301 304 307 308 308 310 307 308 307 305 308 309 311 312 308 303 303 305 307 306 304 303 303 303 304 301 300 299 296 295 292 289 285
197 194 188 180 179 179 175 178 180 177 174 173 173 167 159 156 153 154 165 164 158 154 155 154 150 148 150 156 162 171 175 169 159 153 152 151 144 144 151 144 133 95 88 68 122 288 284 295 300 298 304 300 304 303 300 302 305 305 301 299 304 308 307 306 309 307 305 303 306 307 308 305 305 304 303 302 302 300 302 299 295 288 291 290 288
202 189 181 179 175 181 182 181 180 182 180 176 175 172 173 167 158 154 149 151 154 155 158 155 150 147 149 157 166 173 171 161 153 145 140 137 133 129 127 132 116 68 83 120 242 287 301 306 297 298 298 298 296 299 303 309 306 298 294 292 295 300 304 307 310 310 308 309 311 309 309 307 308 308 307 305 300 297 295 296 296 295 291 286 286
199 188 180 175 181 182 180 178 179 177 177 175 179 176 171 168 160 158 158 156 149 145 150 153 157 153 156 158 166 168 163 153 146 141 134 129 128 120 94 72 52 353 10 20 240 270 286 296 295 291 294 292 294 304 309 308 300 296 296 300 301 302 307 310 311 311 311 314 315 313 312 311 309 307 306 306 306 303 300 298 297 294 291 288 286
192 185 182 181 179 180 179 179 177 179 178 178 179 172 164 159 160 157 152 145 144 141 134 130 129 150 153 159 162 159 156 151 146 136 124 112 123 137 93 139 118 248 273 252 269 290 276 266 277 288 285 284 300 311 309 302 295 294 297 302 306 307 307 310 311 312 314 315 313 313 314 312 311 310 308 303 299 299 300 302 299 296 292 287 285
191 187 182 184 182 175 176 173 174 175 170 166 168 165 163 158 153 148 145 142 138 135 132 129 122 122 104 24 164 159 152 146 137 126 111 97 81 75 111 145 166 210 271 311 330 319 301 291 282 286 292 308 317 312 303 294 291 294 300 302 300 304 303 306 313 313 311 312 313 314 314 312 314 314 313 310 304 299 293 290 285 287 289 287 286
192 188 186 175 172 170 170 173 172 167 164 165 164 161 158 157 157 152 147 143 144 141 140 139 139 143 147 159 79 105 146 131 108 82 72 71 61 57 90 177 185 179 293 306 288 286 286 286 279 287 310 316 309 301 295 291 294 301 303 303 303 298 308 312 311 307 307 313 315 317 316 313 313 314 314 311 308 306 304 306 302 298 298 294 289
196 182 167 167 169 170 171 166 165 166 165 165 163 160 159 156 153 149 145 143 142 141 139 142 146 154 156 150 140 125 109 103 114 138 111 89 102 128 169 173 167 313 270 263 274 272 272 282 295 313 314 308 294 290 289 292 299 302 303 302 303 305 310 312 312 311 313 317 318 317 315 313 312 312 313 310 308 307 304 303 301 295 292 292 283
185 178 170 165 168 168 167 167 165 165 165 161 162 158 154 155 153 146 143 145 147 149 151 152 155 158 156 147 144 132 138 146 150 154 156 154 187 225 171 172 272 229 261 270 257 261 272 287 310 320 307 296 288 285 286 294 299 300 300 301 305 308 311 311 310 312 316 318 318 318 319 316 314 312 310 309 306 304 305 301 299 297 290 282 280
182 172 166 171 163 161 160 164 167 167 164 162 158 155 157 151 146 145 146 148 145 147 148 150 147 151 156 159 158 156 144 151 151 155 163 168 197 228 260 244 233 257 257 256 263 274 302 317 321 306 296 287 285 285 291 298 300 301 302 303 305 309 310 309 309 310 313 317 320 320 319 318 317 317 316 314 313 310 300 297 288 285 291 286 282
171 165 165 167 161 161 163 166 162 157 154 153 155 154 151 149 148 148 147 145 144 146 144 146 150 151 163 161 162 149 126 130 132 141 156 166 186 233 244 248 248 245 251 259 278 306 322 319 299 293 287 289 288 292 299 301 303 304 304 306 309 312 312 312 313 313 315 319 321 322 322 320 319 315 313 313 313 313 311 309 305 295 291 289 286
169 164 164 161 164 165 164 158 152 152 152 153 153 150 149 149 150 148 145 143 144 146 145 146 149 154 164 169 155 135 112 136 137 143 146 165 208 234 243 244 248 246 251 262 276 288 293 290 289 283 285 285 288 291 298 299 300 302 304 306 310 311 310 312 316 317 318 321 323 324 322 321 320 318 318 317 315 315 313 313 307 304 298 292 292
157 155 155 156 153 147 148 148 151 152 153 149 143 145 146 145 141 141 138 138 141 142 144 145 146 145 11 136 118 107 130 131 143 145 161 172 215 236 246 252 257 263 279 293 297 283 283 282 284 287 283 283 285 290 290 291 296 297 305 307 307 304 311 318 320 320 323 326 327 327 326 323 321 320 319 320 321 318 318 315 310 306 303 300 295
150 152 148 146 148 146 147 145 145 144 140 140 142 141 141 139 138 134 136 135 136 137 139 140 138 133 114 114 122 130 136 146 147 151 171 182 216 243 250 257 264 282 304 306 293 291 279 279 278 288 294 297 300 301 298 295 295 298 302 307 307 311 320 322 319 316 319 327 330 329 327 326 324 323 322 322 322 321 317 313 310 310 308 304 303
149 147 146 145 144 145 146 146 143 142 146 139 136 129 112 126 124 134 136 135 136 136 137 135 133 128 127 124 128 132 139 143 155 154 170 214 228 248 249 255 268 285 287 288 299 296 284 277 283 286 293 298 303 302 300 296 299 301 304 301 305 310 316 318 318 318 327 333 332 329 326 325 323 322 321 322 321 319 314 310 306 305 307 306 305
143 142 143 143 145 144 144 140 141 138 117 122 129 132 128 127 128 128 128 132 133 133 134 136 136 139 137 142 145 146 147 148 160 167 192 225 243 249 258 270 290 310 311 306 295 289 286 284 284 285 291 295 297 297 299 301 302 303 303 303 301 316 321 323 322 323 331 334 333 330 327 327 324 326 324 327 326 324 322 315 318 319 319 314 309
141 138 139 139 138 138 138 138 136 136 136 134 133 131 130 130 128 128 130 130 128 130 129 130 133 134 135 137 133 139 142 145 141 168 219 241 251 261 264 285 315 328 326 317 303 290 288 289 293 297 297 298 299 301 301 305 304 306 306 305 308 321 324 324 325 330 339 336 335 332 329 328 327 326 327 329 329 329 326 324 322 325 321 316 310
134 134 135 137 138 140 140 140 142 140 134 133 131 127 130 128 127 126 128 126 129 130 134 135 132 133 131 134 134 135 131 131 151 214 238 257 262 269 268 291 325 337 317 303 294 296 295 297 298 298 296 293 294 298 304 306 308 307 309 303 315 324 327 328 330 338 344 339 337 334 332 330 329 328 329 330 331 331 328 327 319 318 322 318 313
126 129 129 130 131 134 135 135 134 120 123 119 114 123 123 125 125 126 126 125 123 125 127 128 133 138 138 140 141 145 143 157 176 203 239 258 262 264 275 335 336 313 297 287 293 293 296 299 305 301 299 298 300 304 305 306 306 307 306 311 323 330 331 332 336 346 351 346 340 336 335 332 332 331 333 333 334 332 332 330 328 329 328 322 316
115 117 122 125 127 126 125 113 108 111 109 122 118 127 129 116 115 126 128 130 131 134 130 130 129 130 131 135 137 143 157 167 178 205 233 254 255 268 307 345 338 324 304 294 295 295 300 306 308 303 303 304 310 308 311 307 307 306 308 319 335 338 338 341 344 351 353 349 341 340 340 339 336 337 337 338 337 337 334 332 330 324 322 322 323